Starlink 36155

operational
NORAD ID: 66938 Int'l Des: 2025-286 Owner: SPXS Country: US Constellation: starlink
LEOCIRCULAR

Über Starlink 36155

Beschreibung wird geladen...

Live-Position

3D-Globus wird geladen...

Nächste Überflüge

Höhenverlauf

Altitude vs Time

uPlot chart will show altitude changes over time

Zweizeiliger Elementsatz

1 66938U 25286P 25347.58336806 -.01244094 47534-3 -28999-2 0 9996
2 66938 53.1569 46.4105 0000826 61.8843 236.6101 15.96403566 2128
Epoch: 13. Dez. 2025 • Age: 17 hours

Aktueller Status

Höhe 289.5 km
Geschwindigkeit 7.74 km/s
Subsatellitenpunkt 14.82°N, 16.07°E
Startdatum 7. Dez. 2025
Alter 6 days
Typ internet

Technische Details

Klassifizierung Payload
Masse 575.00 kg
Trockenmasse 530.00 kg
Gesamtmasse 575.00 kg
Länge 0.30 m
Durchmesser 4.10 m
Spannweite 29.00 m
Form Box + pan
Hersteller SPXS
Bus-Typ Starlink V2MO
Phasenstatus In Orbit
Besitzer/Staat SPXS/US

Große Konstellationen

Loading constellations...